UKV149 EGLL-EGPH

Flight info

Callsign UKV149
Flight time 0h 55m
Altitude 32000
Route ULTIB T420 TNT UN57 POL UN601 RIBEL DCT INPIP
Aircraft B738/M-SDE2E3FGHIRWXY/LB1

Departure

Time 2026-04-26 07:07
Airport London Heathrow Airport (EGLL)

Arrival

Time 2026-04-26 08:02
Airport Edinburgh Airport (EGPH)
Time Latitude Longitude Altitude Speed Heading
2026-04-26 06:38 51.46826 -0.44979 85 ft 0 kts 359°
2026-04-26 06:55 51.46818 -0.44979 89 ft 4 kts 359°
2026-04-26 06:56 51.46791 -0.44978 88 ft 4 kts 359°
2026-04-26 06:56 51.46770 -0.44977 89 ft 4 kts 340°
2026-04-26 06:56 51.46752 -0.44955 90 ft 4 kts 280°
2026-04-26 06:56 51.46751 -0.44916 90 ft 3 kts 269°
2026-04-26 06:57 51.46751 -0.44910 89 ft 1 kts 269°
2026-04-26 06:59 51.46751 -0.44953 90 ft 8 kts 270°
2026-04-26 06:59 51.46751 -0.45077 85 ft 13 kts 270°
2026-04-26 06:59 51.46750 -0.45240 85 ft 15 kts 270°
2026-04-26 06:59 51.46750 -0.45412 85 ft 15 kts 269°
2026-04-26 07:00 51.46749 -0.45578 85 ft 15 kts 270°
2026-04-26 07:00 51.46749 -0.45737 85 ft 14 kts 269°
2026-04-26 07:00 51.46748 -0.45887 85 ft 13 kts 270°
2026-04-26 07:00 51.46748 -0.46033 87 ft 13 kts 270°
2026-04-26 07:01 51.46747 -0.46175 88 ft 13 kts 269°
2026-04-26 07:01 51.46747 -0.46315 85 ft 13 kts 270°
2026-04-26 07:01 51.46748 -0.46464 85 ft 14 kts 271°
2026-04-26 07:01 51.46748 -0.46625 87 ft 15 kts 269°
2026-04-26 07:02 51.46747 -0.46797 89 ft 16 kts 270°
2026-04-26 07:02 51.46747 -0.46980 89 ft 17 kts 270°
2026-04-26 07:02 51.46746 -0.47174 88 ft 18 kts 270°
2026-04-26 07:02 51.46745 -0.47375 85 ft 18 kts 269°
2026-04-26 07:03 51.46745 -0.47571 85 ft 17 kts 270°
2026-04-26 07:03 51.46744 -0.47761 85 ft 17 kts 270°
2026-04-26 07:03 51.46744 -0.47943 85 ft 16 kts 270°
2026-04-26 07:03 51.46743 -0.48117 85 ft 14 kts 269°
2026-04-26 07:04 51.46708 -0.48219 86 ft 12 kts 181°
2026-04-26 07:04 51.46628 -0.48213 85 ft 11 kts 180°
2026-04-26 07:04 51.46606 -0.48213 86 ft 0 kts 180°
2026-04-26 07:05 51.46604 -0.48213 86 ft 1 kts 180°
2026-04-26 07:05 51.46569 -0.48213 86 ft 9 kts 180°
2026-04-26 07:05 51.46506 -0.48212 87 ft 7 kts 175°
2026-04-26 07:05 51.46481 -0.48180 87 ft 7 kts 113°
2026-04-26 07:06 51.46480 -0.48096 86 ft 8 kts 90°
2026-04-26 07:06 51.46481 -0.47808 86 ft 58 kts 89°
2026-04-26 07:06 51.46485 -0.46800 91 ft 120 kts 89°
2026-04-26 07:06 51.46492 -0.45220 253 ft 152 kts 91°
2026-04-26 07:07 51.46466 -0.43527 870 ft 157 kts 90°
2026-04-26 07:07 51.46603 -0.41814 1559 ft 159 kts 70°
2026-04-26 07:07 51.47101 -0.40149 2063 ft 182 kts 59°
2026-04-26 07:07 51.47953 -0.38407 2346 ft 212 kts 53°
2026-04-26 07:08 51.48948 -0.36481 2600 ft 236 kts 52°
2026-04-26 07:08 51.50050 -0.34369 3025 ft 253 kts 52°
2026-04-26 07:08 51.51188 -0.32194 3928 ft 254 kts 52°
2026-04-26 07:08 51.52283 -0.29942 4760 ft 259 kts 62°
2026-04-26 07:09 51.52937 -0.27248 5527 ft 261 kts 73°
2026-04-26 07:09 51.53502 -0.24464 6199 ft 270 kts 72°
2026-04-26 07:09 51.54109 -0.21541 6984 ft 275 kts 71°
2026-04-26 07:09 51.55027 -0.18851 7734 ft 280 kts 44°
2026-04-26 07:10 51.60341 -0.19206 10149 ft 287 kts 320°
2026-04-26 07:11 51.63374 -0.23803 10934 ft 321 kts 315°
2026-04-26 07:11 51.65036 -0.26387 11153 ft 342 kts 315°
2026-04-26 07:11 51.66882 -0.28900 11709 ft 351 kts 325°
2026-04-26 07:11 51.69015 -0.30969 12463 ft 354 kts 329°
2026-04-26 07:12 51.71135 -0.32918 13230 ft 357 kts 329°
2026-04-26 07:12 51.73301 -0.34925 13993 ft 361 kts 328°
2026-04-26 07:12 51.75482 -0.36983 14696 ft 365 kts 328°
2026-04-26 07:12 51.77679 -0.39083 15380 ft 369 kts 327°
2026-04-26 07:13 51.79893 -0.41213 16075 ft 372 kts 327°
2026-04-26 07:13 51.82128 -0.43376 16798 ft 376 kts 327°
2026-04-26 07:13 51.84373 -0.45568 17539 ft 379 kts 327°
2026-04-26 07:13 51.86644 -0.47792 18234 ft 383 kts 327°
2026-04-26 07:14 51.88936 -0.50038 18866 ft 387 kts 327°
2026-04-26 07:14 51.91252 -0.52307 19479 ft 390 kts 327°
2026-04-26 07:14 51.93580 -0.54590 20119 ft 392 kts 327°
2026-04-26 07:14 51.95924 -0.56884 20752 ft 394 kts 327°
2026-04-26 07:15 51.98283 -0.59185 21350 ft 397 kts 327°
2026-04-26 07:15 52.00658 -0.61502 21950 ft 400 kts 327°
2026-04-26 07:15 52.03052 -0.63840 22531 ft 403 kts 327°
2026-04-26 07:15 52.05455 -0.66191 23137 ft 405 kts 326°
2026-04-26 07:16 52.07880 -0.68566 23739 ft 407 kts 326°
2026-04-26 07:16 52.10307 -0.70947 24222 ft 410 kts 326°
2026-04-26 07:16 52.12761 -0.73358 24680 ft 412 kts 326°
2026-04-26 07:16 52.15217 -0.75783 25144 ft 414 kts 326°
2026-04-26 07:17 52.17683 -0.78227 25605 ft 416 kts 326°
2026-04-26 07:17 52.20159 -0.80685 26048 ft 418 kts 326°
2026-04-26 07:17 52.22648 -0.83157 26476 ft 420 kts 326°
2026-04-26 07:17 52.25147 -0.85642 26897 ft 422 kts 326°
2026-04-26 07:18 52.27662 -0.88137 27310 ft 424 kts 326°
2026-04-26 07:18 52.30189 -0.90642 27752 ft 425 kts 326°
2026-04-26 07:18 52.32690 -0.93123 28172 ft 427 kts 326°
2026-04-26 07:18 52.35230 -0.95647 28596 ft 428 kts 326°
2026-04-26 07:19 52.37770 -0.98174 29137 ft 426 kts 326°
2026-04-26 07:19 52.40290 -1.00686 29715 ft 424 kts 326°
2026-04-26 07:19 52.42809 -1.03201 30135 ft 424 kts 325°
2026-04-26 07:19 52.45326 -1.05717 30569 ft 424 kts 325°
2026-04-26 07:20 52.47839 -1.08233 31045 ft 421 kts 325°
2026-04-26 07:20 52.50332 -1.10739 31519 ft 419 kts 325°
2026-04-26 07:20 52.52804 -1.13245 31949 ft 418 kts 325°
2026-04-26 07:20 52.55279 -1.15762 32286 ft 418 kts 324°
2026-04-26 07:21 52.57768 -1.18292 32261 ft 422 kts 325°
2026-04-26 07:21 52.62748 -1.23331 32256 ft 417 kts 325°
2026-04-26 07:22 52.67670 -1.28325 32278 ft 416 kts 325°
2026-04-26 07:22 52.72604 -1.33346 32274 ft 418 kts 325°
2026-04-26 07:23 52.77557 -1.38388 32360 ft 419 kts 324°
2026-04-26 07:23 52.82522 -1.43456 32352 ft 419 kts 324°
2026-04-26 07:24 52.87487 -1.48539 32345 ft 419 kts 324°
2026-04-26 07:24 52.92438 -1.53622 32337 ft 418 kts 324°
2026-04-26 07:25 52.97372 -1.58703 32342 ft 418 kts 324°
2026-04-26 07:25 53.02306 -1.63795 32348 ft 418 kts 324°
2026-04-26 07:26 53.07427 -1.68419 32333 ft 423 kts 335°
2026-04-26 07:26 53.12932 -1.71779 32327 ft 424 kts 336°
2026-04-26 07:27 53.18474 -1.75125 32332 ft 424 kts 335°
2026-04-26 07:27 53.24003 -1.78525 32358 ft 423 kts 335°
2026-04-26 07:28 53.29529 -1.81965 32343 ft 424 kts 335°
2026-04-26 07:28 53.35055 -1.85421 32325 ft 424 kts 335°
2026-04-26 07:29 53.40611 -1.88905 32329 ft 424 kts 335°
2026-04-26 07:29 53.46128 -1.92373 32330 ft 424 kts 335°
2026-04-26 07:30 53.51651 -1.95854 32322 ft 424 kts 335°
2026-04-26 07:30 53.57172 -1.99345 32334 ft 424 kts 335°
2026-04-26 07:31 53.62688 -2.02841 32322 ft 424 kts 335°
2026-04-26 07:31 53.68172 -2.06327 32327 ft 424 kts 335°
2026-04-26 07:32 53.73685 -2.09841 32331 ft 424 kts 334°
2026-04-26 07:32 53.79155 -2.13525 32317 ft 423 kts 333°
2026-04-26 07:33 53.84596 -2.17321 32317 ft 423 kts 333°
2026-04-26 07:33 53.90060 -2.21082 32314 ft 423 kts 333°
2026-04-26 07:34 53.95522 -2.24818 32320 ft 423 kts 333°
2026-04-26 07:34 54.00985 -2.28572 32327 ft 423 kts 333°
2026-04-26 07:35 54.06443 -2.32334 32309 ft 423 kts 333°
2026-04-26 07:35 54.11895 -2.36098 32317 ft 423 kts 333°
2026-04-26 07:36 54.17348 -2.39875 32295 ft 423 kts 333°
2026-04-26 07:36 54.22800 -2.43661 32333 ft 423 kts 333°
2026-04-26 07:37 54.28252 -2.47460 32312 ft 423 kts 333°
2026-04-26 07:37 54.33699 -2.51265 32310 ft 423 kts 333°
2026-04-26 07:38 54.39144 -2.55081 32316 ft 423 kts 333°
2026-04-26 07:38 54.44559 -2.58887 32301 ft 423 kts 333°
2026-04-26 07:39 54.50007 -2.62726 32317 ft 423 kts 333°
2026-04-26 07:39 54.52720 -2.64640 32060 ft 420 kts 333°
2026-04-26 07:39 54.55396 -2.66529 31738 ft 411 kts 333°
2026-04-26 07:39 54.58030 -2.68392 31327 ft 407 kts 333°
2026-04-26 07:40 54.60635 -2.70238 30906 ft 403 kts 333°
2026-04-26 07:40 54.63217 -2.72073 30480 ft 399 kts 332°
2026-04-26 07:40 54.65777 -2.73894 30026 ft 396 kts 332°
2026-04-26 07:40 54.68302 -2.75693 29590 ft 391 kts 332°
2026-04-26 07:41 54.70805 -2.77479 29161 ft 386 kts 332°
2026-04-26 07:41 54.73272 -2.79241 28774 ft 382 kts 333°
2026-04-26 07:41 54.75722 -2.80994 28313 ft 379 kts 333°
2026-04-26 07:41 54.78144 -2.82730 27895 ft 375 kts 333°
2026-04-26 07:42 54.80549 -2.84455 27472 ft 373 kts 333°
2026-04-26 07:42 54.82936 -2.86169 27059 ft 370 kts 333°
2026-04-26 07:42 54.85302 -2.87870 26657 ft 367 kts 333°
2026-04-26 07:42 54.87653 -2.89561 26251 ft 365 kts 333°
2026-04-26 07:43 54.89997 -2.91255 25735 ft 366 kts 333°
2026-04-26 07:43 54.92363 -2.92970 25262 ft 371 kts 333°
2026-04-26 07:43 54.94758 -2.94711 24753 ft 376 kts 333°
2026-04-26 07:43 54.97185 -2.96476 24229 ft 379 kts 334°
2026-04-26 07:44 54.99622 -2.98248 23658 ft 381 kts 334°
2026-04-26 07:44 55.02075 -3.00033 23060 ft 382 kts 334°
2026-04-26 07:44 55.04522 -3.01815 22517 ft 380 kts 334°
2026-04-26 07:44 55.06953 -3.03588 21983 ft 378 kts 334°
2026-04-26 07:45 55.09345 -3.05336 21458 ft 377 kts 334°
2026-04-26 07:45 55.11759 -3.07102 20932 ft 375 kts 334°
2026-04-26 07:45 55.14160 -3.08861 20404 ft 372 kts 334°
2026-04-26 07:45 55.16519 -3.10588 19856 ft 363 kts 334°
2026-04-26 07:46 55.18820 -3.12274 19325 ft 355 kts 334°
2026-04-26 07:46 55.21083 -3.13935 18795 ft 351 kts 334°
2026-04-26 07:46 55.23341 -3.15597 18243 ft 353 kts 334°
2026-04-26 07:46 55.25613 -3.17270 17652 ft 355 kts 334°
2026-04-26 07:47 55.27897 -3.18953 17086 ft 356 kts 334°
2026-04-26 07:47 55.30242 -3.20245 16498 ft 354 kts 351°
2026-04-26 07:47 55.32675 -3.20164 16037 ft 346 kts
2026-04-26 07:47 55.35059 -3.19786 15489 ft 341 kts
2026-04-26 07:48 55.37403 -3.19372 14965 ft 336 kts
2026-04-26 07:48 55.39703 -3.18967 14464 ft 330 kts
2026-04-26 07:48 55.41972 -3.18579 13949 ft 325 kts
2026-04-26 07:48 55.44212 -3.18209 13408 ft 320 kts
2026-04-26 07:49 55.46414 -3.17853 12902 ft 315 kts
2026-04-26 07:49 55.48579 -3.17508 12427 ft 310 kts
2026-04-26 07:49 55.50715 -3.17170 11944 ft 306 kts
2026-04-26 07:50 55.54905 -3.16510 11028 ft 299 kts
2026-04-26 07:50 55.56965 -3.16185 10578 ft 295 kts
2026-04-26 07:50 55.58997 -3.15866 10130 ft 292 kts
2026-04-26 07:50 55.60990 -3.15551 9652 ft 289 kts
2026-04-26 07:51 55.63008 -3.15233 9180 ft 286 kts
2026-04-26 07:51 55.64978 -3.14922 8737 ft 281 kts
2026-04-26 07:51 55.66889 -3.14619 8316 ft 278 kts
2026-04-26 07:51 55.68800 -3.14316 7903 ft 274 kts
2026-04-26 07:52 55.70714 -3.14014 7486 ft 278 kts
2026-04-26 07:52 55.72632 -3.13679 7323 ft 272 kts
2026-04-26 07:52 55.74494 -3.13229 7309 ft 268 kts
2026-04-26 07:52 55.76333 -3.12753 7304 ft 268 kts
2026-04-26 07:53 55.77561 -3.12434 7307 ft 271 kts
2026-04-26 07:53 55.79440 -3.11949 7232 ft 274 kts
2026-04-26 07:53 55.81289 -3.11204 7130 ft 272 kts 23°
2026-04-26 07:53 55.82822 -3.09373 7013 ft 262 kts 38°
2026-04-26 07:54 55.84183 -3.07321 6843 ft 253 kts 40°
2026-04-26 07:54 55.85526 -3.05349 6650 ft 248 kts 36°
2026-04-26 07:54 55.86943 -3.03627 6462 ft 246 kts 27°
2026-04-26 07:54 55.88496 -3.02332 6232 ft 247 kts 19°
2026-04-26 07:55 55.90133 -3.01401 6011 ft 248 kts 15°
2026-04-26 07:55 55.91821 -3.00801 5783 ft 247 kts
2026-04-26 07:55 55.93504 -3.00492 5555 ft 237 kts 359°
2026-04-26 07:55 55.95111 -3.00586 5347 ft 225 kts 355°
2026-04-26 07:56 55.96646 -3.00750 5102 ft 217 kts 354°
2026-04-26 07:56 55.98123 -3.00917 4855 ft 209 kts 354°
2026-04-26 07:56 55.99546 -3.01081 4610 ft 202 kts 354°
2026-04-26 07:56 56.00923 -3.01255 4369 ft 192 kts 350°
2026-04-26 07:57 56.02061 -3.02176 4110 ft 175 kts 314°
2026-04-26 07:57 56.02700 -3.03896 3837 ft 163 kts 282°
2026-04-26 07:57 56.02938 -3.05848 3615 ft 162 kts 280°
2026-04-26 07:57 56.03178 -3.07830 3364 ft 164 kts 280°
2026-04-26 07:58 56.03419 -3.09833 3114 ft 164 kts 280°
2026-04-26 07:58 56.03464 -3.11841 3002 ft 162 kts 249°
2026-04-26 07:58 56.02940 -3.13605 2972 ft 163 kts 241°
2026-04-26 07:58 56.02394 -3.15387 2794 ft 164 kts 239°
2026-04-26 07:59 56.01816 -3.17145 2572 ft 163 kts 238°
2026-04-26 07:59 56.01236 -3.18864 2348 ft 160 kts 238°
2026-04-26 07:59 56.00660 -3.20558 2136 ft 159 kts 238°
2026-04-26 07:59 56.00083 -3.22254 1917 ft 160 kts 238°
2026-04-26 08:00 55.99507 -3.23951 1687 ft 160 kts 238°
2026-04-26 08:00 55.98941 -3.25616 1487 ft 153 kts 238°
2026-04-26 08:00 55.98402 -3.27205 1259 ft 147 kts 238°
2026-04-26 08:00 55.97872 -3.28767 1058 ft 148 kts 238°
2026-04-26 08:01 55.97335 -3.30320 852 ft 147 kts 238°
2026-04-26 08:01 55.96808 -3.31878 664 ft 145 kts 239°
2026-04-26 08:01 55.96290 -3.33430 435 ft 145 kts 239°
2026-04-26 08:01 55.95777 -3.34966 248 ft 143 kts 239°
2026-04-26 08:02 55.95265 -3.36473 115 ft 136 kts 238°
2026-04-26 08:02 55.94833 -3.37742 110 ft 99 kts 239°
2026-04-26 08:02 55.94613 -3.38392 111 ft 54 kts 239°
2026-04-26 08:02 55.94476 -3.38797 113 ft 24 kts 238°
2026-04-26 08:03 55.94421 -3.38945 112 ft 10 kts 220°
2026-04-26 08:03 55.94357 -3.38940 112 ft 10 kts 149°
2026-04-26 08:03 55.94301 -3.38879 112 ft 9 kts 146°
2026-04-26 08:03 55.94288 -3.38776 115 ft 9 kts 68°
2026-04-26 08:04 55.94325 -3.38674 115 ft 10 kts 56°
2026-04-26 08:04 55.94364 -3.38559 114 ft 11 kts 60°
2026-04-26 08:04 55.94406 -3.38431 113 ft 12 kts 59°
2026-04-26 08:04 55.94451 -3.38296 112 ft 13 kts 59°
2026-04-26 08:05 55.94500 -3.38151 115 ft 14 kts 59°
2026-04-26 08:05 55.94552 -3.37997 113 ft 15 kts 59°
2026-04-26 08:05 55.94607 -3.37836 113 ft 16 kts 58°
2026-04-26 08:05 55.94664 -3.37668 114 ft 16 kts 59°
2026-04-26 08:06 55.94722 -3.37499 115 ft 16 kts 59°
2026-04-26 08:06 55.94777 -3.37337 113 ft 15 kts 59°
2026-04-26 08:06 55.94830 -3.37180 115 ft 14 kts 59°
2026-04-26 08:06 55.94880 -3.37031 113 ft 14 kts 59°
2026-04-26 08:07 55.94929 -3.36889 115 ft 13 kts 58°
2026-04-26 08:07 55.94975 -3.36754 114 ft 13 kts 58°
2026-04-26 08:07 55.95020 -3.36618 112 ft 12 kts 59°
2026-04-26 08:07 55.95064 -3.36489 113 ft 13 kts 58°
2026-04-26 08:08 55.95113 -3.36347 113 ft 14 kts 58°
2026-04-26 08:08 55.95137 -3.36235 115 ft 9 kts 93°
2026-04-26 08:08 55.95117 -3.36127 114 ft 9 kts 109°
2026-04-26 08:08 55.95098 -3.36024 112 ft 8 kts 109°
2026-04-26 08:09 55.95077 -3.35938 113 ft 7 kts 117°
2026-04-26 08:09 55.95051 -3.35856 112 ft 8 kts 126°
2026-04-26 08:09 55.95002 -3.35845 115 ft 7 kts 202°
2026-04-26 08:09 55.94953 -3.35858 115 ft 7 kts 168°
2026-04-26 08:10 55.94917 -3.35820 113 ft 6 kts 152°
2026-04-26 08:10 55.94880 -3.35838 112 ft 5 kts 214°
2026-04-26 08:10 55.94860 -3.35860 114 ft 2 kts 209°
2026-04-26 08:10 55.94852 -3.35867 115 ft 1 kts 209°
2026-04-26 08:11 55.94848 -3.35872 115 ft 1 kts 209°
2026-04-26 08:11 55.94847 -3.35872 115 ft 0 kts 209°
2026-04-26 08:12 55.94847 -3.35873 116 ft 0 kts 211°
2026-04-26 08:12 55.94847 -3.35872 116 ft 0 kts 212°
2026-04-26 08:12 55.94847 -3.35873 115 ft 0 kts 212°
2026-04-26 08:13 55.94848 -3.35872 116 ft 0 kts 212°